Satellite: SO-50
Catalog number: 27607
Epoch time:      12137.72251951
Element set:    0763
Inclination:      064.5592 deg
RA of node:       030.6131 deg
Eccentricity:    0.0084022
Arg of perigee:   254.6308 deg
Mean anomaly:     104.5500 deg
Mean motion:   14.72356864 rev/day
Decay rate:       4.40e-06 rev/day^2
Epoch rev:           50533
Checksum:              273

Satellite: CO-55
Catalog number: 27844
Epoch time:      12138.57431204
Element set:     375
Inclination:      098.7028 deg
RA of node:       147.3984 deg
Eccentricity:    0.0009461
Arg of perigee:   317.0375 deg
Mean anomaly:     043.0067 deg
Mean motion:   14.21012897 rev/day
Decay rate:       2.29e-06 rev/day^2
Epoch rev:           46054
Checksum:              304

Satellite: CO-57
Catalog number: 27848
Epoch time:      12138.57261814
Element set:     326
Inclination:      098.7107 deg
RA of node:       146.7170 deg
Eccentricity:    0.0009435
Arg of perigee:   323.6316 deg
Mean anomaly:     036.4224 deg
Mean motion:   14.20765501 rev/day
Decay rate:       1.79e-06 rev/day^2
Epoch rev:           46048
Checksum:              305

Satellite: AO-51
Catalog number: 28375
Epoch time:      12137.62424019
Element set:    0268
Inclination:      098.1450 deg
RA of node:       104.3748 deg
Eccentricity:    0.0083832
Arg of perigee:   135.8755 deg
Mean anomaly:     224.9158 deg
Mean motion:   14.40938556 rev/day
Decay rate:       1.59e-06 rev/day^2
Epoch rev:           41422
Checksum:              315

Satellite: CP3
Catalog number: 31129
Epoch time:      12137.95714200
Element set:    0167
Inclination:      097.8823 deg
RA of node:       147.5728 deg
Eccentricity:    0.0100002
Arg of perigee:   220.0069 deg
Mean anomaly:     139.3745 deg
Mean motion:   14.53037102 rev/day
Decay rate:       5.55e-06 rev/day^2
Epoch rev:           26944
Checksum:              275

Satellite: CO-65
Catalog number: 32785
Epoch time:      12138.74624436
Element set:     310
Inclination:      097.8029 deg
RA of node:       200.5158 deg
Eccentricity:    0.0015027
Arg of perigee:   157.4640 deg
Mean anomaly:     202.7228 deg
Mean motion:   14.82917590 rev/day
Decay rate:      1.716e-05 rev/day^2
Epoch rev:           21925
Checksum:              301

Satellite: PRISM
Catalog number: 33493
Epoch time:      12138.71288557
Element set:     702
Inclination:      098.1669 deg
RA of node:       278.5612 deg
Eccentricity:    0.0019633
Arg of perigee:   039.3035 deg
Mean anomaly:     320.9603 deg
Mean motion:   14.83748550 rev/day
Decay rate:      2.836e-05 rev/day^2
Epoch rev:           17923
Checksum:              321

Satellite: SOHLA-1
Catalog number: 33496
Epoch time:      12137.86061828
Element set:    0748
Inclination:      098.1018 deg
RA of node:       249.8094 deg
Eccentricity:    0.0007193
Arg of perigee:   134.0363 deg
Mean anomaly:     226.1428 deg
Mean motion:   14.69950070 rev/day
Decay rate:       3.48e-06 rev/day^2
Epoch rev:           17764
Checksum:              317

Satellite: SO-67
Catalog number: 35870
Epoch time:      12138.71458087
Element set:     962
Inclination:      097.2355 deg
RA of node:       175.5346 deg
Eccentricity:    0.0000556
Arg of perigee:   334.2768 deg
Mean anomaly:     148.2888 deg
Mean motion:   15.23572439 rev/day
Decay rate:      4.326e-05 rev/day^2
Epoch rev:           14797
Checksum:              351

Satellite: TISAT-1
Catalog number: 36799
Epoch time:      12138.68604365
Element set:     980
Inclination:      098.0629 deg
RA of node:       214.7977 deg
Eccentricity:    0.0013504
Arg of perigee:   272.3066 deg
Mean anomaly:     087.6608 deg
Mean motion:   14.81852564 rev/day
Decay rate:      1.819e-05 rev/day^2
Epoch rev:            9997
Checksum:              356

Satellite: STUDSAT
Catalog number: 36801
Epoch time:      12137.78950805
Element set:    0419
Inclination:      098.0700 deg
RA of node:       214.4727 deg
Eccentricity:    0.0011702
Arg of perigee:   262.0975 deg
Mean anomaly:     097.8910 deg
Mean motion:   14.84006435 rev/day
Decay rate:      4.894e-05 rev/day^2
Epoch rev:           09986
Checksum:              315

Satellite: FO-69
Catalog number: 37227
Epoch time:      12137.20776016
Element set:    0185
Inclination:      071.9700 deg
RA of node:       022.5277 deg
Eccentricity:    0.0015841
Arg of perigee:   014.5841 deg
Mean anomaly:     345.5297 deg
Mean motion:   14.77040511 rev/day
Decay rate:      -1.56e-06 rev/day^2
Epoch rev:           03137
Checksum:              286

Satellite: FO-70
Catalog number: 37380
Epoch time:      12137.27567472
Element set:    0185
Inclination:      071.9741 deg
RA of node:       022.8962 deg
Eccentricity:    0.0018036
Arg of perigee:   010.0794 deg
Mean anomaly:     350.0707 deg
Mean motion:   14.76807976 rev/day
Decay rate:      1.384e-05 rev/day^2
Epoch rev:           03127
Checksum:              308

Satellite: ALMASAT-1
Catalog number: 38078
Epoch time:      12138.87108008
Element set:     217
Inclination:      069.4994 deg
RA of node:       025.8912 deg
Eccentricity:    0.0763296
Arg of perigee:   286.5758 deg
Mean anomaly:     065.2891 deg
Mean motion:   14.08465418 rev/day
Decay rate:     1.2555e-04 rev/day^2
Epoch rev:            1328
Checksum:              338

